RH
60 58 58 61 61 56 52 40 18 12 9 8 8 9 10 11 13 12 12 12 10 13 16 16 17 37 94
52 54 57 56 51 47 35 16 10 9 9 10 12 13 12 12 11 11 12 11 14 14 16 17 21 75 96
50 49 47 44 38 25 13 10 10 10 12 13 14 15 13 12 13 14 16 16 19 18 17 30 82 98 99
45 34 31 27 17 13 12 11 12 13 13 14 13 12 14 15 16 17 18 22 21 20 33 62 72 86 100
19 18 17 14 13 13 13 14 15 14 14 16 13 13 18 20 19 21 26 26 25 28 60 91 97 100 100
13 14 15 15 15 16 15 16 15 17 14 14 14 15 18 18 21 22 24 28 32 36 85 100 98 97 100
16 16 14 16 16 19 19 18 17 17 15 13 15 15 17 20 22 25 29 34 36 47 41 36 76 100 100
18 18 18 19 20 20 18 17 17 17 17 15 17 15 17 21 23 27 34 34 31 32 37 61 97 100 100
23 22 22 20 19 18 18 17 17 20 22 27 27 23 18 20 26 31 34 33 33 36 39 48 63 98 93
27 25 24 22 20 20 20 20 22 26 32 36 30 35 29 22 26 30 33 33 36 40 41 39 43 51 60
30 28 26 26 24 24 24 23 25 30 39 44 37 39 51 46 23 29 34 36 37 36 37 37 38 68 94
33 31 31 32 31 28 26 25 25 28 39 52 50 48 54 55 53 31 35 37 40 41 45 45 50 53 52
34 32 34 38 38 33 31 29 26 27 38 51 56 55 62 64 62 39 44 41 43 57 70 62 52 51 55
38 34 35 38 43 45 44 38 34 29 33 49 62 70 65 56 59 44 51 80 60 60 62 58 59 52 56
42 39 38 39 43 49 50 49 42 38 32 37 62 69 70 67 62 63 66 64 62 65 82 80 67 56 53
53 51 49 47 45 47 54 56 52 46 40 37 50 67 71 66 67 70 76 77 76 81 83 78 57 52 54
53 59 60 60 58 54 52 58 60 54 46 48 72 94 100 97 67 83 94 96 88 74 72 69 71 55 63
Wind_Speed
16 14 15 19 18 18 17 16 16 15 15 14 15 16 15 15 16 19 20 22 22 21 22 22 24 23 21
16 15 14 16 15 14 12 14 13 14 13 14 15 15 15 16 19 20 20 22 21 22 24 24 24 22 22
16 15 14 12 11 11 11 11 11 12 13 14 14 15 17 18 18 18 19 21 22 22 24 23 20 19 18
15 14 12 11 11 10 9 9 9 11 11 11 13 16 16 16 15 18 19 22 23 23 21 18 18 19 20
15 13 12 10 9 8 8 7 9 10 9 11 13 12 13 14 16 18 21 23 20 18 17 17 19 20 23
13 11 9 7 6 6 7 7 7 8 11 10 12 12 14 16 18 19 20 16 17 19 18 19 22 26 26
7 6 4 3 4 6 7 8 9 10 14 12 13 12 16 17 19 17 12 18 20 22 24 24 25 25 26
6 3 1 2 3 5 8 10 12 13 14 17 16 16 17 17 16 10 17 20 22 22 23 23 23 25 25
3 2 2 4 8 9 10 12 13 14 15 15 18 22 20 15 8 19 20 22 21 21 22 25 25 24 25
4 7 7 8 8 9 11 13 16 15 14 19 22 23 20 13 23 23 23 21 23 22 23 24 23 24 26
6 7 7 8 9 11 13 15 16 17 16 20 24 23 23 28 29 29 26 26 27 25 21 22 23 22 26
6 7 8 10 11 13 14 16 18 19 18 18 22 23 24 30 34 32 30 27 28 25 26 23 24 25 24
6 8 10 12 14 15 17 18 20 20 20 19 21 22 24 28 33 35 35 32 24 28 28 26 28 28 31
9 11 13 14 16 17 19 20 22 21 20 19 20 21 25 28 31 34 31 34 31 30 30 32 31 28 31
10 13 15 16 18 19 21 23 24 26 27 24 21 23 26 29 32 31 31 29 28 32 37 40 37 30 29
12 14 16 18 20 21 23 24 26 27 29 29 28 28 30 30 25 26 30 32 31 36 37 38 41 35 29
16 17 20 22 24 25 26 27 29 30 31 30 27 27 29 35 33 27 27 33 38 35 33 34 38 37 33
Wind_Direction
229 231 237 234 235 243 250 259 270 280 282 290 294 294 294 292 296 300 300 295 294 299 299 300 298 299 300
230 226 221 223 223 236 247 261 273 279 290 294 299 294 296 300 297 296 294 295 300 301 299 300 300 302 301
230 220 222 218 221 233 247 264 276 287 294 298 300 296 295 294 296 297 299 302 302 305 306 306 305 305 308
219 217 206 203 213 232 251 265 279 289 293 293 292 294 300 302 312 314 312 311 315 315 314 306 300 301 310
200 190 193 200 215 239 253 271 285 286 292 295 305 307 306 316 321 316 311 312 320 322 313 307 307 309 312
177 176 186 206 231 261 276 279 296 303 311 319 315 318 314 322 315 311 310 322 320 317 311 302 302 305 308
167 169 182 226 269 274 290 323 328 319 316 318 320 312 320 318 310 309 320 326 323 316 314 317 314 307 303
145 134 161 250 296 325 335 336 330 325 320 317 322 323 322 317 311 323 326 326 321 315 315 314 308 304 304
130 111 44 14 3 342 336 329 328 327 321 317 320 323 327 326 312 329 328 324 319 318 315 308 307 306 297
56 28 17 2 347 336 333 333 331 331 326 321 322 329 329 322 319 325 326 321 320 320 315 313 312 308 309
11 3 348 336 335 333 332 331 330 324 321 313 313 318 311 309 318 324 328 324 320 320 314 312 314 318 308
350 339 340 339 334 331 332 332 329 323 317 309 304 309 305 305 306 319 322 321 317 318 319 316 316 315 312
336 339 340 338 335 331 329 327 327 326 320 312 306 305 301 300 304 311 317 318 317 320 320 314 317 319 316
337 333 331 332 332 329 327 324 324 327 320 315 306 305 306 305 303 304 313 306 315 317 317 316 318 320 315
321 321 320 320 322 323 324 322 319 323 326 326 316 306 303 302 299 305 309 304 313 319 319 313 313 316 315
310 311 315 318 319 317 317 319 319 322 322 322 318 313 311 307 303 311 309 307 313 314 309 308 311 316 316
306 314 315 317 316 316 317 319 319 318 317 318 317 315 311 304 311 307 306 305 310 309 310 310 311 316 318